ANIK G1

Last updated on Wed Sep 09 2026 00:03:00 GMT+0000 (Coordinated Universal Time)

1 39127U 13014A 26251.49509550 -.00000095 00000+0 00000+0 0 9997 2 39127 0.0423 268.2426 0002725 278.6413 231.6079 1.00271451 49080
UTC large
Height (km)
Speed (km/s)
/
Latitude / Longitude
Inclination (degrees)
Orbital Period (minutes)
Azimuth
Elevation
Range (km)
Doppler Factor

Next 0 passes for location: London (51.5072 / 0.1276)

No passes found over London.
ANIK G1